TimeEDT,TemperatureF,Dew PointF,Humidity,Sea Level PressureIn,VisibilityMPH,Wind Direction,Wind SpeedMPH,Gust SpeedMPH,PrecipitationIn,Events,Conditions,WindDirDegrees,DateUTC
12:56 AM,62.1,44.1,52,29.99,10.0,SW,10.4,-,N/A,,Clear,220,2013-03-17 04:56:00
1:56 AM,63.0,48.9,60,30.00,10.0,WSW,11.5,-,N/A,,Clear,250,2013-03-17 05:56:00
2:56 AM,61.0,48.9,64,30.00,10.0,West,9.2,-,N/A,,Clear,260,2013-03-17 06:56:00
3:56 AM,57.9,48.9,72,30.01,10.0,WSW,5.8,-,N/A,,Clear,240,2013-03-17 07:56:00
4:56 AM,55.9,48.9,77,30.01,10.0,WSW,6.9,-,N/A,,Clear,240,2013-03-17 08:56:00
5:56 AM,55.0,48.9,80,30.02,10.0,WSW,8.1,-,N/A,,Clear,240,2013-03-17 09:56:00
6:56 AM,55.0,50.0,83,30.04,10.0,WSW,6.9,-,N/A,,Clear,240,2013-03-17 10:56:00
7:56 AM,55.0,51.1,86,30.05,10.0,WSW,4.6,-,N/A,,Clear,240,2013-03-17 11:56:00
8:56 AM,60.1,53.1,78,30.06,10.0,WSW,9.2,-,N/A,,Clear,250,2013-03-17 12:56:00
9:56 AM,64.9,53.1,65,30.07,10.0,West,8.1,-,N/A,,Clear,270,2013-03-17 13:56:00
10:56 AM,68.0,53.1,59,30.07,10.0,West,13.8,-,N/A,,Clear,260,2013-03-17 14:56:00
11:56 AM,73.0,53.1,49,30.05,10.0,West,15.0,21.9,N/A,,Clear,270,2013-03-17 15:56:00
12:56 PM,73.9,50.0,43,30.04,10.0,West,15.0,24.2,N/A,,Clear,270,2013-03-17 16:56:00
1:56 PM,75.9,48.0,37,30.01,10.0,West,13.8,19.6,N/A,,Partly Cloudy,280,2013-03-17 17:56:00
2:56 PM,78.1,48.0,35,29.98,10.0,SSW,11.5,23.0,N/A,,Scattered Clouds,210,2013-03-17 18:56:00
3:56 PM,73.0,55.0,53,29.97,10.0,South,10.4,-,N/A,,Partly Cloudy,190,2013-03-17 19:56:00
4:56 PM,69.1,51.1,53,29.98,10.0,SSW,11.5,19.6,N/A,,Clear,200,2013-03-17 20:56:00
5:56 PM,66.0,50.0,56,29.99,10.0,South,10.4,19.6,N/A,,Partly Cloudy,190,2013-03-17 21:56:00
6:56 PM,64.0,50.0,60,30.00,10.0,SSW,8.1,-,N/A,,Clear,210,2013-03-17 22:56:00
7:56 PM,63.0,50.0,63,30.02,10.0,SSW,5.8,-,N/A,,Clear,210,2013-03-17 23:56:00
8:56 PM,63.0,48.9,60,30.03,10.0,SSW,4.6,-,N/A,,Clear,200,2013-03-18 00:56:00
9:56 PM,63.0,51.1,65,30.04,10.0,SW,3.5,-,N/A,,Scattered Clouds,220,2013-03-18 01:56:00
10:56 PM,63.0,51.1,65,30.05,10.0,Calm,Calm,-,N/A,,Clear,0,2013-03-18 02:56:00
11:56 PM,63.0,52.0,67,30.05,10.0,SW,4.6,-,N/A,,Overcast,220,2013-03-18 03:56:00